Погода в Иркутске

Погода в Иркутске : погода сейчас, прогноз погоды и архив. Всё, что Вы хотите узнать о погоде в Иркутске!

Поиск расширенной информации на нашем сайте:

Полезная информация: ТехноПоинт Иркутск

Другие новости

Новости СМИ2

Главная страница сайта

Новости сайта

03.07.2017

Напоминаем, что на нашем специализированном сайте Метеоцентр.Азия вы можете получить высокодетализированные автоматические прогнозы погоды по пунктам России, СНГ и мира в авиационном формате (включающие направление и скорость ветра, видимость, явления погоды, количество и форму облачности, нижнюю и верхнюю границу облачности).

Рекомендуем: Комплексное бухгалтерское обслуживание

Погода в Иркутске - сегодня

Время (UTC), дата Ветер
(°,м/с) 
Видим.   Явления Облачность Т
(°С)
Тd
(°С)
f(%) Тe
(°С)
Pmin
(гПа)
dP
(гПа)
Po
(мм)
O2
(г/м3)
Тmin Tmax R s Состояние
почвы
06 12.12.17 тихо ()   10 км    10/0 средняя, верхняя 
[Ac trans|Cs]
-16.4 -19.9 74 -16  1030.5  -2.7  726  313           
09 12.12.17 090 (В) 10 км    10/0 средняя, верхняя 
[Ac trans|Cs]
-15.5 -18.4 78 -16  1028.6  -1.6  725  311           
12 12.12.17 080 (В) н/о    10/6 600 м кучево-дожд., средняя 
[Cb cap|Ac und]
-13.1 -17.2 71 -15  1026.9  -1  724  308    -13.1       
15 12.12.17 300 (СЗ) н/о  слаб. ливневой снег  10/10 600 м кучево-дожд. 
[Cb cap]
-15.5 -17.8 82 -18  1029.1  1.5  726  311           
18 12.12.17 310 (СЗ) н/о  ливневой снег  10/10 600 м кучево-дожд. 
[Cb cap]
-16.5 -18.5 84 -19  1031.8  2.3  727  313           
21 12.12.17 290 (З) н/о  слаб. ливневой снег  10/10 600 м кучево-дожд. 
[Cb cap]
-17.2 -19.7 81 -20  1033.9  1.8  729  315           
00 13.12.17 320 (СЗ) н/о  слаб. снег{ливн. осадки}  10/0 средняя, верхняя 
[As op|Cs]
-17.1 -19.5 82 -20  1035.8  1.9  730  315  -17.9    22  равномерный
сухой снег
100% 
03 13.12.17 тихо ()   10 км  слаб. снег  10/0 средняя, верхняя 
[As op|Cs]
-16.3 -19.1 79 -16  1037.9  2.1  732  315  -18         
06 13.12.17 080 (В) 10 км  слаб. снег  10/0 средняя, верхняя 
[As op|Cs]
-14.4 -17.8 75 -14  1037.6  0.1  732  313           
09 13.12.17 140 (ЮВ) 10 км  слаб. снег  10/0 средняя, верхняя 
[As op|Cs]
-15.1 -17.3 83 -15  1038.6  0.9  732  314           
12 13.12.17 150 (ЮВ) н/о  слаб. ливневой снег  10/10 600 м кучево-дожд. 
[Cb cap]
-15.3 -17.2 85 -15  1039.7  0.9  733  314    -13.6  0.5     
15 13.12.17 070 (В) н/о  слаб. ливневой снег  10/10 600 м кучево-дожд. 
[Cb cap]
-17.6 -19.7 84 -18  1040.8  0.5  733  317           
18 13.12.17 070 (В) н/о  слаб. ливневой снег  10/10 600 м кучево-дожд. 
[Cb cap]
-19.3 -21.3 84 -20  1041.1  -0.1  733  320           
21 13.12.17 тихо ()   н/о  слаб. ливневой снег  10/10 600 м кучево-дожд. 
[Cb cap]
-18.8 -20.9 83 -19  1040.8  -0.2  733  319           
00 14.12.17 050 (СВ) н/о  в посл. час ливневой снег  6/6 600 м кучево-дожд. 
[Cb cap]
-19.5 -21.4 85 -20  1041.4  0.4  734  320  -19.9    0.3  23  равномерный
сухой снег
100% 
03 14.12.17 050 (СВ) 2000 м  в посл. час снег  3/0 верхняя 
[Ci fib]
-18.3 -20.6 82 -19  1041.7  0.6  734  319           
06 14.12.17 140 (ЮВ) 4000 м  слаб. снег  10/0 средняя 
[As trans]
-13.9 -16.7 79 -14  1039.9  -0.7  733  313           
09 14.12.17 тихо ()   4000 м  слаб. снег  10/0 средняя, верхняя 
[Ac As|Cs]
-13.7 -15.9 83 -14  1040.6  0.7  734  313           
12 14.12.17 320 (СЗ) н/о  ливневой снег  10/10 300 м кучево-дожд. 
[Cb cap]
-12.7 -14.3 88 -13  1042.7  2.2  736  312    -11.8  0.4     
15 14.12.17 300 (СЗ) н/о  слаб. ливневой снег  9/9 600 м кучево-дожд. 
[Cb cap]
-13.9 -17.1 77 -17  1044.7  1.7  737  314           
18 14.12.17 300 (СЗ) н/о  слаб. ливневой снег  10/10 600 м кучево-дожд. 
[Cb cap]
-14.9 -18.5 74 -19  1045.9  0.8  737  316           
21 14.12.17 300 (СЗ) н/о  слаб. ливневой снег  10/6 600 м кучево-дожд., верхняя 
[Cb cap|Cs]
-15.5 -18.7 76 -19  1046.3  0.3  738  317           
00 15.12.17 300 (СЗ) н/о  слаб. снег{ливн. осадки}  10/0 средняя 
[As op]
-15.3 -17.8 81 -18  1046.6  0.3  738  316  -15.8    0.4  21  равномерный
сухой снег
100% 
03 15.12.17 250 (З) 4000 м  слаб. снег  10/0 средняя 
[As op]
-13.7 -15.9 83 -14  1046.6  0.4  738  314           
06 15.12.17 250 (З) 2000 м  снег  10/0 средняя 
[As trans]
-10.8 -13.8 79 -11  1044.5  -1.3  737  311           
Время (UTC), дата Ветер
(°,м/с) 
Видим.   Явления Облачность Т
(°С)
Тd
(°С)
f(%) Тe
(°С)
Pmin
(гПа)
dP
(гПа)
Po
(мм)
O2
(г/м3)
Тmin Tmax R s Состояние
почвы

Для получения пояснительной информации подведите курсор к названию столбца.

ПОГОДА в Иркутске - архив

Всё, что Вы хотите узнать о погоде в Иркутске - удобно и подробно!

Выберите нужную дату (начиная с 1 января 2015* года) и нажмите кнопку "Найти".
Будут отображены архивные сводки погоды по пункту Иркутск, начиная с указанной даты.


Отображать данные в формате CSV (для использования в таблицах Excel)


Внимание! Наш архив погоды предназначен исключительно для личного некоммерческого использования в познавательных целях. Если Вам необходимы официальные справки о состоянии погоды (для производственных, юридических, коммерческих и т.п. целей), обращайтесь в органы Росгидромета.

*Примечание: данная дата относится к архиву по метеостанциям СССР (Россия, СНГ, Балтия).
Архив по метеостанциям Зарубежной Европы и Азии (кроме Китая) хранится 10 дней, по другим регионам земного шара (Китай, Африка, Америка, Австралия, Океания) - 1 день.

Иркутск - район местоположения метеостанции


Название, широта, долгота, высота метеостанции:
Иркутск (город) 52.3°ш. 104.3°д. 485 м над ур. моря [Российская Федерация]

Дополнительная информация

В oтличие oт бoльшинства пoгoдных сайтoв мы публикуем пoдрoбную метеoинфoрмацию в детальнoм прoфессиoнальнoм фoрмате.

Характеристики температуры и влажнoсти вoздуха измеряются на высoте 2 м в тени вдали oт зданий и деревьев.
Скoрoсть ветра измеряется на высoте 10 м (на урoвне рoста челoвека скoрoсть ветра ниже в 1.5-2 раза). Если метеoстанция нахoдится в гoрoде или в лесу, тo скoрoсть ветра занижена на 2-4 м/с пo сравнению с oткрытым местoм. Скoрoсть ветра над акватoриями крупных рек и oзёр, а также на вершинах хoлмoв на 2-5 м/с выше, чем в oбычных услoвиях.
Атмoсфернoе давление в разных тoчках местнoсти мoжет значительнo oтличаться oт давления на метеoстанции, в зависимoсти oт услoвий рельефа (при пoдъёме на 10 м давление пoнижается примернo на 1 мм рт.ст.).